Flag for Germany Weather past 2 weeks in Rottenburg am Neckar, Baden-Württemberg, Germany

Now
64 °F

Scattered clouds.


Feels Like: 64 °F
Forecast: 39 / 70 °F
Wind: 3 mph from Northwest

Location: Stuttgart-Echterdingen

Current Time: Aug 21, 2014 at 4:07:25 PM

Latest Report: Aug 21, 2014 at 3:00 PM


Visibility: 38 mi

Pressure: 30.03 "Hg

Humidity: 48%

Dew point: 44 °F

Location of Rottenburg am NeckarLocation

Historic Weather in Rottenburg am Neckar — Graph

°F

Rottenburg am Neckar temperature yesterday

Maximum temperature yesterday: 63 °F (at 2:00 PM)
Minimum temperature yesterday: 51 °F (at 3:00 AM)
Average temperature yesterday: 57 °F

Past Weeks' High & Low Weather Summary

 TemperatureHumidityPressure
High82 °F (Aug 10, 6:00 PM)100% (Aug 8, 8:00 AM)30.18 "Hg (Aug 8, 8:00 AM)
Low48 °F (Aug 21, 7:00 AM)43% (Aug 12, 3:00 PM)29.67 "Hg (Aug 13, 5:00 PM)
Average62 °F74%29.95 "Hg
* Reported Aug 6 3:00 PM — Aug 21 3:00 PM, Rottenburg am Neckar, Weather by CustomWeather, © 2014

Note: Actual official high and low records may vary slightly from our data, if they occured in-between our weather recording intervals... More about our weather records

Advertising

Rottenburg am Neckar weather history for previous 24 hours

 ConditionsComfort  
Time TempWeatherWind HumidityBarometerVisibility
3:00 PM
Aug 21
64 °FScattered clouds.3 mph48%30.03 "Hg37 mi
2:00 PM64 °FPartly sunny.2 mph52%30.05 "Hg37 mi
1:00 PM62 °FPartly sunny.2 mph53%30.06 "Hg37 mi
12:00 PM63 °FScattered clouds.2 mph46%30.06 "Hg31 mi
10:00 AM58 °FPassing clouds.2 mph74%30.08 "Hg31 mi
9:00 AM55 °FSunny.2 mph78%30.09 "Hg34 mi
8:00 AM52 °FPassing clouds.1 mph91%30.09 "Hg34 mi
7:00 AM48 °FPassing clouds.1 mph92%30.09 "Hg31 mi
6:00 AM49 °FPassing clouds.3 mph93%30.09 "Hg28 mi
5:00 AM52 °FPassing clouds.1 mph88%30.07 "Hg25 mi
4:00 AM53 °FCool.2 mph85%30.06 "HgN/A
3:00 AM54 °FOvercast.1 mph85%30.06 "Hg25 mi
2:00 AM55 °FLight rain. Overcast.3 mph84%30.06 "Hg19 mi
1:00 AM55 °FOvercast.2 mph78%30.05 "Hg28 mi
12:00 AM55 °FOvercast.2 mph79%30.04 "Hg31 mi
10:00 PM
Aug 20
57 °FOvercast.No wind72%30.03 "Hg31 mi
9:00 PM58 °FOvercast.1 mph66%30.02 "Hg31 mi
8:00 PM59 °FOvercast.2 mph60%30.01 "Hg37 mi
7:00 PM60 °FOvercast.3 mph58%30.01 "Hg37 mi
6:00 PM61 °FOvercast.5 mph56%30.01 "Hg37 mi
4:00 PM63 °FOvercast.2 mph51%30.00 "Hg37 mi
Weather by CustomWeather, © 2014

See weather overviewHow to use our weather pages